Dyersburg, TN

11:22 AM CST on December 05, 2019 (GMT -0600)
Dyersburg Municipal

Weather History for KDYR - October, 2019

Change the Weather History Date:

Friday, October 18, 2019

  Actual Average Record
Temperature  
Mean Temperature 54 °F -  
Max Temperature 70 °F 68 °F 86 °F (2005)
Min Temperature 39 °F 47 °F 37 °F (1997)
Degree Days  
Heating Degree Days 11    
Growing Degree Days 4 (Base 50)    
Moisture  
Dew Point 44 °F    
Average Humidity 77    
Maximum Humidity 100    
Minimum Humidity 37    
Precipitation  
Precipitation 0.00 in - - ()
Sea Level Pressure  
Sea Level Pressure 29.98 in    
Wind  
Wind Speed 3 mph ()    
Max Wind Speed 13 mph    
Max Gust Speed 16 mph    
Visibility 7.0 miles    
Events Fog , Rain    
Averages and records for this station are not official NWS values.
T = Trace of Precipitation, MM = Missing Value Source: Averaged Metar Reports

Daily Weather History Graph

Daily Weather History Graph

Search for Another Location

Airport or City:

Astronomy

Oct. 18, 2019 Rise Set
Actual Time 7:06 AM CDT 6:18 PM CDT
Civil Twilight 6:40 AM CDT 6:44 PM CDT
Nautical Twilight 6:11 AM CDT 7:13 PM CDT
Astronomical Twilight 5:41 AM CDT 7:43 PM CDT
Moon 9:41 PM CDT (10/18) 11:32 AM CDT (10/18)
Length of Visible Light 12h 03m
Length of Day
11h 11m
Waning Gibbous, 78% of the Moon is Illuminated
Oct 18
Waning Gibbous
Oct 21
Last Quarter
Oct 27
New
Nov 4
First Quarter
Nov 12
Full

Hourly Weather History & Observations

Time (CDT) Temp. Windchill Dew Point Humidity Pressure Visibility Wind Dir Wind Speed Gust Speed Precip Events Conditions
12:56 AM 44.1 °F - 43.0 °F 96% 30.05 in 10.0 mi Calm Calm - N/A   Clear
1:56 AM 43.0 °F - 42.1 °F 97% 30.05 in 10.0 mi Calm Calm - N/A   Clear
2:56 AM 41.0 °F - 41.0 °F 100% 30.05 in 10.0 mi Calm Calm - N/A   Clear
3:56 AM 41.0 °F - 41.0 °F 100% 30.05 in 10.0 mi Calm Calm - N/A   Clear
4:56 AM 39.9 °F - 39.9 °F 100% 30.06 in 4.0 mi Calm Calm - N/A   Clear
5:56 AM 39.9 °F 35.8 °F 39.9 °F 100% 30.06 in 10.0 mi ENE 5.8 mph - N/A   Clear
6:56 AM 41.0 °F 38.0 °F 39.9 °F 96% 30.07 in 10.0 mi East 4.6 mph - N/A   Clear
7:56 AM 44.1 °F 41.5 °F 42.1 °F 93% 30.07 in 10.0 mi ENE 4.6 mph - N/A   Clear
8:56 AM 48.9 °F - 45.0 °F 86% 30.08 in 10.0 mi ENE 4.6 mph - N/A   Clear
9:56 AM 55.9 °F - 44.1 °F 64% 30.08 in 10.0 mi East 6.9 mph - N/A   Clear
10:56 AM 61.0 °F - 44.1 °F 54% 30.08 in 10.0 mi East 11.5 mph - N/A   Clear
11:56 AM 63.0 °F - 42.1 °F 46% 30.06 in 10.0 mi East 12.7 mph 16.1 mph N/A   Clear
12:56 PM 64.9 °F - 42.1 °F 43% 30.04 in 10.0 mi East 8.1 mph - N/A   Clear
1:56 PM 68.0 °F - 41.0 °F 37% 30.00 in 10.0 mi Variable 4.6 mph - N/A   Clear
2:56 PM 68.0 °F - 43.0 °F 40% 29.97 in 10.0 mi East 8.1 mph - N/A   Clear
3:56 PM 69.1 °F - 42.1 °F 38% 29.95 in 10.0 mi Variable 4.6 mph - N/A   Clear
4:56 PM 69.1 °F - 42.1 °F 38% 29.94 in 10.0 mi East 4.6 mph - N/A   Clear
5:56 PM 66.0 °F - 44.1 °F 45% 29.92 in 10.0 mi East 3.5 mph - N/A   Clear
6:56 PM 57.0 °F - 44.1 °F 62% 29.92 in 10.0 mi East 3.5 mph - N/A   Clear
7:56 PM 53.1 °F - 46.9 °F 80% 29.92 in 10.0 mi ENE 3.5 mph - N/A   Clear
8:56 PM 53.1 °F - 46.0 °F 77% 29.92 in 10.0 mi NE 3.5 mph - N/A   Clear
9:32 PM 51.8 °F - 46.4 °F 82% 29.90 in 0.8 mi East 4.6 mph - 0.00 in Rain Light Rain
9:34 PM 51.8 °F - 46.4 °F 82% 29.90 in 0.2 mi East 4.6 mph - 0.00 in Rain Light Rain
9:56 PM 51.1 °F - 46.0 °F 83% 29.91 in 0.2 mi Calm Calm - 0.00 in   Haze
10:56 PM 48.0 °F - 46.0 °F 93% 29.91 in 0.5 mi Calm Calm - 0.00 in Fog Fog
11:09 PM 48.2 °F - 46.4 °F 93% 29.89 in 0.2 mi East 3.5 mph - 0.00 in Fog , Rain Light Rain
11:14 PM 48.2 °F - 46.4 °F 93% 29.88 in 0.8 mi East 3.5 mph - 0.00 in Rain Light Rain
11:29 PM 48.2 °F - 46.4 °F 93% 29.88 in 0.5 mi East 3.5 mph - 0.00 in Fog , Rain Light Rain
11:41 PM 48.2 °F - 46.4 °F 93% 29.88 in 0.8 mi NE 3.5 mph - 0.00 in Rain Light Rain
11:56 PM 46.9 °F - 45.0 °F 93% 29.90 in 0.5 mi Calm Calm - 0.00 in Fog , Rain Light Rain